Location: ??????
(42.0089°N, 44.3281°E)
Time: 05:02:27
(UTC+00:00)

CZ-2C R/B - Visible Passes

Search period start: 03 October 2023 00:00
Search period end: 13 October 2023 00:00
Orbit: 784 x 869 km, 98.3° (Epoch: 02 October)

Date Brightness Start Highest point End Pass type
(mag) Time Alt. Az. Time Alt. Az. Time Alt. Az.
03 Oct 5.4 22:56:07 12° NNE 22:56:07 12° NNE 22:56:40 10° NNE visible
05 Oct 5.1 00:18:42 10° NNW 00:18:42 10° NNW 00:18:46 10° NNW visible
05 Oct 5.1 23:59:47 11° NNW 23:59:47 11° NNW 23:59:57 10° NNW visible
06 Oct 5.2 23:40:52 11° N 23:40:52 11° N 23:41:00 10° N visible
